loading
DOY 175 | 2024-06-23T18:14:05Z

THOR ABLESTAR DEB, 417

Orbit data source: Space-Track

THOR ABLESTAR DEB, 417 is space debris in LEO originally from a launch on Thu, 29 Jun 1961 UTC launched from the Air Force Eastern Test Range (AFETR). Debris objects in space refer to the collection of defunct objects orbiting the Earth. Examples of debris include non-operational satellites, rocket bodies, and fragments generated from explosions, collisions, or faulty payload assembly.

Loading next visibility...
Loading greatness...
THOR ABLESTAR DEB details
NORAD ID417
COSPAR ID
1961-015ES
Orbit
LEO
Last TLE update1 day ago
Origin
Flag of USUSAF SSD (US)
ManufacturerUnknown
BusUnknown
MotorUnknown
MassWet unknown, Dry mass unknown
Launch date (UTC)
1961-06-29 (63 years ago)
Launch vehicleUnknown
Launch site
Air Force Eastern Test Range (AFETR)
Object type
Payload
Rocket body
Debris
Radar Cross SectionSmall (<0.1 m²)
Predictive object data (real-time)
Latitude-65.94187°
Longitude118.51312°
Altitude796.39 km
Speed7.484 km/s
Apparent Right ascension15h 11m 15s
Apparent Declination-63° 19' 12"
Sunlit
Object is in daylight
Predictive observer data (real-time)
Local Sidereal Time05:23:13
Azimuth151.142° SSE
Elevation-59.564°
Doppler factor1
Orbital elements
Apogee883.884 km
Perigee770.584 km
Semi-major axis7,205.371 km
Eccentricity0.0078622
Inclination66.7462°
RAAN272.6999°
Arg. of periapsis265.5019°
True anomaly94.60745°
Mean anomaly93.709°
Mean motion3.54861 °/min
BSTAR0.00044444
Period101.45 mins
Definitive object data (Epoch: 2024-06-22T08:51:13.047Z)
Latitude0.00006°
Longitude-131.13767°
Altitude835.065 km
Speed7.434 km/s
True Right ascension18h 10m 47s
True Declination0° 00' 00"
Sunlit
Object was in full shadow at TLE epoch
TLE from 1 day ago
0 THOR ABLESTAR DEB
1 00417U 61015ES  24174.36890101  .00000874  00000-0  44444-3 0  9993
2 00417  66.7462 272.6999 0078622 265.5019  93.7090 14.18964695234585
Epoch: 2024-06-22T08:51Z
No data available

THOR ABLESTAR DEB Visibility forecast

Observer location: 39.9160978°, -105.1181434, 0m alt.

THOR ABLESTAR DEB is not visible in the next 10 days
Span
Click to sort rows by Start time (UTC) header in descending order
Start Az.
Max El. time (UTC)
Max El. Az.
Max El.
End time (UTC)
End Az.